Voltar ao catálogo

SL-12 DEB

LostHEO
NORAD 41704·DEBRIS·🇷🇺 Russia

Lançado Mar 1, 2010 de Baikonur Cosmodrome

Loading…

Próximas Passagens (próximas 24 horas)

TLE

ObsoletoSource: Space-Track

Época: Jul 9, 2024, 16:53 UTC

1 41704U 10007W   24191.70386788 -.00001195  00000-0 -29034-1 0  9995
2 41704  65.1010  97.7847 5402330 307.8265  14.5457  4.35437325149197

Acompanhe SL-12 DEB em tempo real com AllMySat

Download on the App Store